Station WGXA2 - Wrangell Harbor Image indicating link to RSS feed of recent meteorological observations for station WGXA2


Conditions at WGXA2 as of
(7:43 am AKDT)
1543 GMT on 05/29/2024:
     

Click on the graph icon in the table below to see a time series plot of the last five days of that observation.

5-day plot - Wind Speed Wind Speed (WSPD): 0 kts
5-day plot - Wind Gust Wind Gust (GST): 2 kts
5-day plot - Atmospheric Pressure Atmospheric Pressure (PRES):30.06 in
5-day plot - Air Temperature Air Temperature (ATMP): 47.5 °F
5-day plot - Dew Point Dew Point (DEWP): 45.9 °F
5-day plot - Wind Speed at 10 Meters Wind Speed at 10 meters (WSPD10M): 2 kts
5-day plot - Wind Speed at 20 Meters Wind Speed at 20 meters (WSPD20M): 2 kts
5-day plot -  Wind Speed, Wind Gust and Atmospheric Pressure Combined plot of Wind Speed, Gust, and Air Pressure
Previous observations
TIME
(AKDT)
5-day plot - Wind Direction
WDIR
 
5-day plot - Wind Speed
WSPD
kts
5-day plot - Wind Gust
GST
kts
5-day plot - Wave Height
WVHT
ft
5-day plot - Dominant Wave Period
DPD
sec
5-day plot - Average Wave Period
APD
sec
5-day plot - Mean Wave Direction
MWD
 
5-day plot - Atmospheric Pressure
PRES
in
5-day plot - Pressure Tendency
PTDY
in
5-day plot - Air Temperature
ATMP
°F
5-day plot - Water Temperature
WTMP
°F
5-day plot - Dew Point
DEWP
°F
5-day plot - Salinity
SAL
psu
5-day plot - Visibility
VIS
nmi
5-day plot - Tide (above MLLW)
TIDE
ft
2024-05-29 07:33 am S 1 2----30.06- 47.1- 45.5---
2024-05-29 07:23 am- 0 2----30.06- 46.9- 45.3---
2024-05-29 07:13 am W 1 2----30.06- 46.8- 45.3---
2024-05-29 07:03 am- 0 1----30.06- 46.8- 45.9---
2024-05-29 06:53 amSSE 1 2----30.06- 46.8- 46.0---
2024-05-29 06:43 am E 1 2----30.05- 46.0- 45.3---
2024-05-29 06:33 am- 0 2----30.05- 45.3- 44.6---
2024-05-29 06:23 am- 0 2----30.04- 45.1- 44.4---
2024-05-29 06:13 am SE 2 3----30.04- 45.0- 44.4---
2024-05-29 06:04 am SE 2 3----30.04- 44.8- 44.1---
2024-05-29 05:53 am- 0 2----30.04- 45.0- 44.4---
2024-05-29 05:43 amSSE 2 3----30.04- 45.0- 44.2---
2024-05-29 05:33 amENE 2 3----30.03- 45.1- 44.6---
2024-05-29 05:23 am SE 1 2----30.03- 45.1- 44.4---
2024-05-29 05:13 am E 1 2----30.03- 45.1- 44.6---
2024-05-29 05:03 am SE 1 2----30.03- 45.1- 44.4---
2024-05-29 04:53 amESE 1 2----30.03- 45.3- 44.8---
2024-05-29 04:43 amENE 2 3----30.02- 45.1- 44.6---
2024-05-29 04:33 am SE 2 3----30.02- 45.3- 44.6---
2024-05-29 04:23 am E 1 3----30.02- 45.5- 44.8---
2024-05-29 04:13 am SE 1 2----30.02- 45.5- 44.8---
2024-05-29 04:03 am E 2 3----30.02- 45.3- 44.6---
2024-05-29 03:53 amENE 3 4----30.01- 45.1- 44.4---
2024-05-29 03:43 amENE 3 5----30.01- 45.7- 45.0---
2024-05-29 03:33 am E 2 3----30.01- 45.9- 45.3---
2024-05-29 03:23 am- 0 2----30.01- 46.0- 45.3---
2024-05-29 03:13 amESE 2 3----30.01- 45.9- 45.1---
2024-05-29 03:03 am E 2 4----30.01- 46.0- 45.3---
2024-05-29 02:53 am E 2 4----30.00- 46.4- 45.3---
2024-05-29 02:43 am NE 2 3----30.00- 46.8- 45.3---
2024-05-29 02:33 amNNW 1 4----30.00- 46.8- 45.0---
2024-05-29 02:23 amNNW 3 5----29.99- 46.4- 44.6---
2024-05-29 02:13 amWNW 1 3----29.99- 46.6- 45.9---
2024-05-29 02:03 amSSW 1 2----29.99- 46.8- 46.0---
2024-05-29 01:54 am SW 2 4----29.99- 46.8- 46.2---
2024-05-29 01:43 am S 3 4----29.98- 46.8- 46.4---
2024-05-29 01:33 am SW 3 4----29.98- 46.8- 46.4---
2024-05-29 01:23 amWSW 2 4----29.98- 46.8- 46.6---
2024-05-29 01:13 amWSW 2 4----29.97- 46.8- 46.2---
2024-05-29 01:03 am W 4 6----29.97- 46.9- 46.2---
2024-05-29 12:53 amWNW 3 4----29.97- 46.9- 46.2---
2024-05-29 12:43 amWSW 1 2----29.96- 47.1- 46.6---
2024-05-29 12:33 am S 1 2----29.96- 46.9- 46.4---
2024-05-29 12:23 am E 2 2----29.96- 47.1- 46.4---
2024-05-29 12:14 amNNE 1 3----29.96- 46.9- 46.2---
2024-05-29 12:03 am NW 2 3----29.96- 46.8- 46.0---
2024-05-28 11:53 pmWNW 3 4----29.96- 46.8- 46.0---
2024-05-28 11:43 pm W 4 6----29.96- 46.8- 46.0---
2024-05-28 11:33 pm S 2 4----29.95- 46.9- 46.4---
2024-05-28 11:23 pm SE 2 3----29.95- 46.9- 46.2---
2024-05-28 11:13 pm E 1 2----29.95- 46.9- 46.2---
2024-05-28 11:03 pmESE 2 3----29.94- 47.1- 46.4---
2024-05-28 10:53 pm E 3 4----29.94- 47.1- 46.4---
2024-05-28 10:43 pm E 2 4----29.94- 47.1- 46.2---
2024-05-28 10:33 pm SE 3 6----29.94- 47.3- 46.2---
2024-05-28 10:23 pm E 3 5----29.93- 46.9- 45.9---
2024-05-28 10:13 pmESE 2 4----29.93- 46.9- 45.7---
2024-05-28 10:03 pmESE 3 5----29.93- 46.8- 45.9---
2024-05-28 09:53 pm SE 2 4----29.93- 46.9- 45.9---
2024-05-28 09:43 pm E 2 4----29.92- 46.9- 45.9---
2024-05-28 09:33 pmESE 2 3----29.92- 47.3- 45.9---
2024-05-28 09:23 pm E 2 4----29.92- 47.5- 45.9---
2024-05-28 09:13 pmESE 2 3----29.92- 47.3- 45.9---
2024-05-28 09:03 pmSSE 3 4----29.92- 47.1- 46.0---
2024-05-28 08:53 pm SE 2 5----29.92- 47.5- 45.5---
2024-05-28 08:43 pm E 4 6----29.92- 47.3- 45.5---
2024-05-28 08:34 pmENE 3 5----29.91- 47.5- 45.3---
2024-05-28 08:23 pmENE 2 3----29.92- 47.7- 45.5---
2024-05-28 08:13 pm E 1 3----29.91- 47.8- 45.5---
2024-05-28 08:03 pm E 2 4----29.91- 47.7- 45.5---
2024-05-28 07:53 pm NE 3 5----29.91- 47.5- 45.5---
2024-05-28 07:43 pm E 3 5----29.91- 47.5- 46.0---
2024-05-28 07:33 pm E 3 5----29.91- 47.3- 46.6---
2024-05-28 07:23 pmENE 4 7----29.91- 47.5- 46.6---
2024-05-28 07:13 pm E 2 4----29.91- 47.5- 46.2---
2024-05-28 07:03 pm SE 3 4----29.91- 47.5- 45.9---
2024-05-28 06:53 pmESE 4 5----29.91- 48.0- 45.9---
2024-05-28 06:43 pm E 4 7----29.91- 48.4- 46.6---
2024-05-28 06:33 pm E 4 7----29.90- 48.6- 46.8---
2024-05-28 06:23 pmENE 3 4----29.91- 48.9- 46.8---
2024-05-28 06:13 pm E 4 8----29.91- 48.9- 46.0---
2024-05-28 06:03 pm E 8 13----29.90- 49.3- 45.9---
2024-05-28 05:53 pm E 6 14----29.90- 49.5- 46.6---
2024-05-28 05:44 pm E 4 8----29.89- 49.5- 46.6---
2024-05-28 05:33 pmENE 4 7----29.89- 49.5- 46.4---
2024-05-28 05:23 pmENE 4 7----29.89- 49.3- 46.6---
2024-05-28 05:13 pmENE 3 6----29.89- 49.5- 46.6---
2024-05-28 05:03 pm E 3 7----29.89- 49.6- 46.6---
2024-05-28 04:53 pm E 4 7----29.89- 50.0- 46.4---
2024-05-28 04:43 pmENE 3 5----29.89- 50.4- 47.1---
2024-05-28 04:33 pmESE 3 5----29.89- 50.7- 46.2---
2024-05-28 04:23 pm S 2 4----29.88- 51.1- 46.0---
2024-05-28 04:13 pmSSW 2 6----29.88- 51.3- 45.5---
2024-05-28 03:53 pmWNW 7 9----29.88- 51.1- 44.6---
2024-05-28 03:44 pm NW 6 9----29.88- 51.6- 43.5---
2024-05-28 03:33 pmWNW 3 6----29.88- 52.2- 42.4---
2024-05-28 03:23 pmNNE 2 5----29.88- 51.6- 44.2---
2024-05-28 03:13 pmESE 4 7----29.88- 51.1- 44.1---
2024-05-28 03:03 pm S 9 14----29.88- 51.6- 43.3---
2024-05-28 02:53 pm S 6 11----29.88- 52.3- 43.7---
2024-05-28 02:43 pmSSE 7 13----29.87- 52.3- 43.3---
2024-05-28 02:34 pmSSW 6 14----29.87- 52.5- 43.0---
2024-05-28 02:23 pm W 4 7----29.87- 53.2- 42.6---
2024-05-28 02:13 pm N 2 4----29.86- 53.6- 42.3---
2024-05-28 02:03 pmESE 4 9----29.87- 52.5- 42.6---
2024-05-28 01:53 pmSSE 10 15----29.86- 53.4- 41.5---
2024-05-28 01:43 pm S 8 14----29.86- 54.9- 42.1---
2024-05-28 01:33 pm S 7 11----29.86- 55.0- 40.5---
2024-05-28 01:23 pmSSW 7 10----29.86- 55.0- 39.6---
2024-05-28 01:13 pmWSW 4 10----29.86- 54.5- 40.6---
2024-05-28 01:03 pmWNW 3 5----29.86- 54.0- 39.9---
2024-05-28 12:53 pmWSW 2 4----29.86- 54.9- 41.5---
2024-05-28 12:43 pm W 1 3----29.86- 54.1- 41.4---
2024-05-28 12:33 pmSSW 2 5----29.86- 53.2- 43.0---
2024-05-28 12:24 pm SE 4 7----29.86- 52.2- 43.0---
2024-05-28 12:13 pm SE 5 11----29.87- 51.3- 42.4---
2024-05-28 12:03 pmSSE 8 14----29.87- 52.0- 41.4---
2024-05-28 11:53 amSSW 6 10----29.86- 52.9- 40.8---
2024-05-28 11:43 am S 4 9----29.86- 54.0- 40.1---
2024-05-28 11:34 amESE 3 7----29.87- 53.6- 40.8---
2024-05-28 11:23 am S 6 9----29.87- 52.0- 41.2---
2024-05-28 11:13 amSSW 6 9----29.87- 51.6- 41.0---
2024-05-28 11:03 amSSW 7 11----29.87- 51.8- 41.0---
2024-05-28 10:53 amSSW 8 12----29.87- 51.6- 40.6---
2024-05-28 10:43 am S 7 11----29.87- 51.8- 41.4---
2024-05-28 10:33 amSSW 7 10----29.87- 51.6- 41.0---
2024-05-28 10:23 am S 6 12----29.87- 51.4- 41.5---
2024-05-28 10:13 amSSW 4 11----29.87- 50.9- 41.7---
2024-05-28 10:03 amSSW 5 8----29.87- 50.4- 42.4---
2024-05-28 09:53 am W 4 6----29.87- 50.4- 42.8---
2024-05-28 09:43 am W 2 4----29.87- 50.5- 42.8---
2024-05-28 09:33 am SW 3 6----29.87- 50.2- 43.0---
2024-05-28 09:23 amWSW 2 5----29.87- 49.8- 43.0---
2024-05-28 09:13 am S 3 8----29.87- 49.8- 43.0---
2024-05-28 09:04 amENE 7 10----29.87- 50.0- 43.0---
2024-05-28 08:53 amENE 5 10----29.87- 50.4- 43.3---
2024-05-28 08:44 amENE 4 8----29.88- 50.0- 43.2---
2024-05-28 08:34 am E 5 7----29.88- 49.5- 43.7---
2024-05-28 08:23 amENE 3 5----29.88- 49.6- 44.2---
2024-05-28 08:13 am NE 3 7----29.88- 49.3- 44.4---
2024-05-28 08:04 amENE 2 5----29.88- 48.6- 44.4---
2024-05-28 07:53 am N 3 5----29.88- 48.0- 44.6---